Voltar ao catálogo

COSMOS 2251 DEB

LostVLEO
NORAD 36423·DEBRIS·🇷🇺 Russia

Lançado Jun 16, 1993 de Plesetsk Cosmodrome

Loading…

Próximas Passagens (próximas 24 horas)

TLE

ObsoletoSource: Space-Track

Época: Aug 7, 2026, 08:25 UTC

1 36423U 93036AZW 26219.35136445  .00068750  00000-0  29950-2 0  9993
2 36423  73.7679  87.2038 0039038  52.5898 307.8841 15.21170222286018

Acompanhe COSMOS 2251 DEB em tempo real com AllMySat

Download on the App Store